Location: Unspecified
(50.7693°N, 0.0000°E)
Time: 20:30:04
(UTC+00:00)

Transit 4A - Pass Details

Date: 03 July 2019
Orbit: 862 x 982 km, 66.8° (Epoch: 18 July)

Event Time Altitude Azimuth Distance (km) Brightness Sun altitude
Rises 10:48:23 0° 308° (NW) 3,695 10.7 58.5°
Reaches altitude 10° 10:51:45 10° 325° (NW) 2,746 10.2 58.8°
Maximum altitude 10:56:23 20° 11° (N) 2,093 9.8 59.2°
Drops below altitude 10° 11:00:58 10° 58° (ENE) 2,721 10.5 59.6°
Sets 11:04:17 0° 74° (ENE) 3,650 11.1 59.8°
